Hourly Data Report for December 23, 2019

EUREKA CLIMATE
NUNAVUT
Current Station Operator: ECCC - MSC

79°59'21.000" N
85°56'02.000" W
10.00 m
2401199
71613
NEK

Download Data

Hourly Data (December 2019)
Hourly Data Report for December 23, 2019
TIME
LST
Temp Definition
°C
Dew Point Definition
°C
Rel Hum Definition
%
Precip. Amount Definition
mm

Wind Dir Definition
10's deg

Wind Spd Definition
km/h
Visibility Definition
km
Stn Press Definition
kPa
Hmdx Definition


Wind Chill Definition


Weather Definition


00:00 -29.7 -32.5 77 0.0 10 6   101.12   -36 LegendNANA
01:00 -29.1 -31.9 77 0.0 4 1   101.15   -30 LegendNANA
02:00 -29.0 -31.7 77 0.0 7 2   101.18   -31 LegendNANA
03:00 -29.2 -31.9 77 0.0 11 4   101.19   -34 LegendNANA
04:00 -29.4 -32.2 77 0.0 12 8   101.22   -37 LegendNANA
05:00 -29.2 -32.0 77 0.2 6 3   101.26   -33 LegendNANA
06:00 -29.1 -31.8 77 0.0 12 7   101.25   -36 LegendNANA
07:00 -28.8 -31.5 78 0.0 11 8   101.26   -37 LegendNANA
08:00 -28.4 -31.1 78 0.0 9 6   101.27   -35 LegendNANA
09:00 -28.0 -30.6 79 0.0 3 5   101.30   -33 LegendNANA
10:00 -29.3 -32.1 77 0.0 8 3   101.32   -33 LegendNANA
11:00 -29.4 -32.1 77 0.0 6 1   101.35   -31 LegendNANA
12:00 -30.6 -33.7 75 0.0 4 8   101.37   -39 LegendNANA
13:00 -30.8 -33.7 76 0.0 4 9   101.39   -40 LegendNANA
14:00 -32.1 -35.4 72 0.0 7 8   101.40   -40 LegendNANA
15:00 -31.6 -34.6 75 0.0 15 5   101.43   -37 LegendNANA
16:00 -32.3 -35.3 75 0.0 3 14   101.45   -44 LegendNANA
17:00 -32.1 -35.2 74 0.0 12 5   101.46   -38 LegendNANA
18:00 -32.5 -35.6 74 0.0 13 5   101.46   -38 LegendNANA
19:00 -31.9 -34.9 75 0.0 9 5   101.46   -38 LegendNANA
20:00 -30.9 -33.7 76 0.0 5 7   101.46   -38 LegendNANA
21:00 -30.0 -32.8 77 0.0 9 5   101.47   -36 LegendNANA
22:00 -29.2 -31.9 77 0.0 13 6   101.48   -36 LegendNANA
23:00 -28.7 -31.4 78 0.0 10 3   101.49   -32 LegendNANA

Notes on Data Quality.

Legend

  • E = Estimated
  • M = Missing
  • NA = Not Available*
  • [empty] = Indicates an unobserved value
Date modified: